Wind_Speed
15 19 24 27 13 13 14 13 10 6 13 13 8 34 50 53 46 42 46 47 38 37 39 35 34 32 28 28 22 18 19 23
14 17 21 25 5 11 10 11 8 2 7 9 15 32 42 42 39 47 39 41 35 42 36 37 36 32 27 25 20 18 23 20
13 14 17 18 3 10 12 10 8 6 7 12 21 23 25 36 42 40 38 38 41 38 38 35 36 32 27 26 25 23 22 21
13 10 12 11 7 9 11 14 8 7 7 8 18 23 27 28 37 38 38 40 44 40 39 38 38 33 30 29 29 30 23 24
14 8 7 7 6 2 11 15 15 9 13 9 12 14 13 22 30 28 38 36 44 51 44 43 40 33 37 36 34 31 26 26
14 8 5 3 2 4 2 5 14 20 20 20 18 12 19 16 21 23 27 32 35 42 47 51 45 42 45 43 35 31 27 28
17 11 8 2 1 3 5 5 3 9 19 20 18 17 21 25 17 24 21 34 28 40 33 42 40 42 43 44 35 32 30 29
20 13 11 8 4 5 6 6 6 7 6 13 17 18 22 22 17 26 24 24 25 24 24 27 27 30 33 36 38 34 33 35
20 14 14 12 9 6 6 7 8 7 7 9 11 15 18 22 22 24 24 28 27 25 21 26 31 31 26 31 35 37 38 38
21 18 14 12 12 10 8 6 8 8 8 8 10 12 13 13 16 18 20 22 25 28 26 27 28 28 33 38 40 40 40 40
23 21 17 13 13 12 11 11 9 8 8 9 9 9 10 11 11 11 12 14 18 21 22 23 24 26 31 35 37 37 41 44
23 24 22 18 15 15 13 12 12 13 12 12 11 11 10 10 10 11 12 14 15 17 18 20 22 24 26 31 34 38 43 47
21 21 24 20 18 17 17 16 16 15 16 19 17 16 16 15 14 13 14 15 16 18 20 23 25 28 30 34 37 39 44 49
19 18 20 19 18 16 16 17 15 15 17 18 20 22 22 19 17 19 20 20 21 23 25 27 29 31 34 37 40 42 46 50
17 18 18 18 18 17 15 16 17 18 18 20 22 20 22 25 25 26 29 25 26 28 30 31 33 36 39 42 45 46 48 51
16 23 20 16 17 17 15 15 12 15 16 16 14 16 19 23 27 24 27 29 28 32 33 37 39 42 43 43 45 45 48 46
16 22 24 22 18 17 14 17 14 12 14 14 15 16 18 18 19 21 27 29 31 31 32 33 35 37 38 39 39 41 43 44
23 20 21 22 22 20 17 18 21 18 19 20 20 21 21 22 24 25 27 29 29 30 31 33 36 37 36 38 41 42 44 46
27 28 27 24 26 25 26 24 23 26 26 25 25 26 27 28 30 32 33 32 34 34 34 35 37 38 40 41 43 41 40 43
Wind_Direction
310 321 325 319 278 236 246 228 239 285 299 282 265 211 203 212 225 218 220 205 203 188 195 195 199 204 203 207 221 234 237 239
304 321 328 326 237 223 234 244 211 317 340 276 212 196 192 206 220 203 207 203 185 195 193 197 202 204 209 223 213 224 238 245
290 317 330 334 293 210 228 244 222 258 237 180 206 169 191 208 200 196 201 203 186 190 199 202 204 209 217 213 219 216 241 245
273 308 330 341 350 211 234 249 241 188 193 173 191 198 177 194 194 211 202 201 184 193 199 199 209 217 215 216 226 228 232 245
254 285 321 333 11 335 232 252 232 203 186 188 201 177 206 210 206 203 203 207 200 194 196 205 213 216 222 220 227 227 232 246
237 250 279 332 45 77 89 243 237 235 222 213 211 210 227 213 196 207 212 218 212 208 206 208 214 213 225 226 238 215 235 249
230 226 243 241 143 117 108 104 131 229 236 206 199 209 205 218 201 206 213 219 221 218 223 221 226 234 240 235 237 223 238 245
224 225 223 217 186 154 136 117 98 105 150 197 203 201 176 199 214 224 210 209 212 219 230 229 242 240 235 235 232 230 242 247
214 212 212 214 206 178 160 143 127 121 119 128 146 181 196 198 216 212 219 230 232 240 253 243 233 228 229 226 232 236 241 246
211 210 202 210 208 202 187 181 164 152 142 137 140 152 165 175 184 190 197 212 226 235 234 234 227 227 231 234 235 238 245 250
213 213 216 197 199 200 200 205 206 196 182 166 160 159 164 173 177 181 190 200 209 216 219 224 229 232 234 235 240 245 250 257
218 217 218 205 212 218 219 214 219 223 220 209 203 197 191 191 194 201 207 215 221 228 231 236 241 244 247 249 252 254 257 261
205 214 217 216 220 225 233 236 234 233 232 226 221 220 221 221 222 225 235 237 238 243 246 251 254 256 258 259 261 265 267 271
211 212 211 209 215 221 229 235 232 235 232 232 231 230 231 231 232 245 249 248 248 250 251 253 256 260 263 266 268 269 272 281
208 208 202 212 219 222 222 224 235 232 229 228 229 233 236 232 235 234 238 256 249 252 254 256 258 260 262 263 264 265 269 270
219 212 209 214 217 219 217 221 232 224 220 215 213 227 234 235 238 239 237 242 256 265 256 255 258 260 263 267 269 272 268 273
225 214 221 221 222 216 222 229 224 209 203 208 209 214 225 229 233 242 249 253 256 258 261 263 265 266 265 268 269 269 269 273
241 235 232 224 224 228 225 232 230 226 222 222 226 231 235 236 237 242 244 248 253 256 261 265 267 268 268 269 270 271 272 273
236 226 237 239 235 236 231 230 236 234 234 237 243 248 248 248 247 247 250 254 256 260 262 264 262 265 269 269 270 269 272 275
Height
3069 3067 3063 3057 3050 3052 3053 3055 3056 3053 3048 3046 3043 3047 3061 3070 3079 3086 3092 3098 3105 3116 3124 3130 3135 3140 3144 3147 3150 3153 3156 3158
3067 3065 3061 3055 3047 3050 3052 3053 3054 3052 3051 3046 3046 3051 3061 3070 3076 3084 3091 3095 3101 3114 3120 3128 3133 3137 3141 3144 3146 3149 3153 3154
3065 3064 3060 3056 3047 3048 3051 3052 3052 3052 3052 3052 3053 3057 3063 3071 3078 3083 3089 3093 3102 3111 3118 3125 3130 3133 3137 3140 3142 3145 3149 3151
3061 3061 3059 3056 3050 3049 3051 3052 3053 3053 3054 3056 3059 3062 3067 3072 3076 3081 3086 3092 3100 3108 3115 3121 3126 3129 3132 3135 3138 3140 3144 3147
3058 3058 3058 3056 3053 3050 3049 3051 3053 3054 3056 3057 3060 3063 3067 3070 3076 3080 3086 3092 3096 3102 3109 3116 3120 3123 3126 3129 3132 3135 3137 3141
3056 3055 3056 3056 3054 3053 3051 3050 3051 3052 3054 3058 3060 3063 3066 3070 3076 3081 3086 3090 3094 3098 3103 3109 3113 3116 3120 3124 3128 3130 3133 3135
3053 3053 3054 3055 3054 3054 3053 3053 3052 3051 3053 3055 3057 3060 3065 3069 3074 3079 3084 3089 3093 3097 3101 3106 3109 3112 3116 3120 3124 3125 3127 3129
3050 3051 3053 3053 3054 3054 3054 3054 3055 3054 3054 3054 3056 3059 3063 3069 3073 3076 3080 3084 3088 3093 3097 3101 3104 3108 3110 3113 3118 3119 3122 3122
3046 3049 3051 3052 3053 3054 3055 3055 3056 3057 3058 3057 3057 3059 3063 3067 3071 3074 3078 3082 3087 3089 3093 3097 3101 3104 3107 3109 3111 3113 3115 3116
3043 3046 3048 3050 3052 3052 3053 3055 3057 3058 3060 3060 3060 3062 3064 3067 3069 3072 3075 3079 3083 3086 3089 3092 3095 3097 3101 3104 3105 3107 3107 3109
3039 3042 3045 3047 3050 3051 3051 3052 3055 3056 3058 3060 3061 3062 3064 3067 3070 3072 3075 3078 3080 3083 3085 3088 3090 3093 3096 3098 3100 3100 3100 3102
3036 3039 3041 3043 3046 3048 3050 3050 3052 3054 3056 3058 3060 3062 3064 3067 3070 3073 3075 3076 3079 3081 3084 3086 3088 3090 3091 3092 3094 3095 3094 3096
3033 3036 3038 3041 3043 3045 3047 3048 3050 3052 3054 3056 3058 3060 3062 3065 3067 3070 3072 3075 3077 3080 3081 3082 3084 3085 3086 3086 3087 3088 3087 3084
3031 3033 3035 3038 3040 3042 3043 3045 3046 3048 3049 3052 3054 3056 3059 3062 3064 3066 3068 3070 3072 3074 3075 3076 3078 3079 3080 3079 3078 3078 3075 3073
3029 3031 3033 3035 3037 3039 3040 3041 3042 3043 3044 3047 3050 3053 3055 3057 3059 3060 3063 3065 3066 3068 3069 3070 3070 3071 3070 3070 3069 3068 3067 3064
3026 3028 3030 3032 3034 3036 3037 3038 3039 3040 3041 3044 3047 3049 3051 3052 3054 3056 3058 3060 3061 3061 3061 3061 3062 3062 3062 3060 3059 3057 3055 3054
3022 3024 3026 3028 3031 3032 3034 3035 3037 3038 3040 3042 3044 3046 3047 3048 3049 3051 3052 3052 3053 3054 3054 3054 3054 3053 3053 3052 3050 3047 3045 3042
3016 3018 3020 3022 3025 3028 3029 3031 3033 3035 3037 3039 3040 3041 3042 3043 3044 3045 3046 3046 3047 3047 3047 3046 3045 3044 3044 3043 3041 3037 3034 3032
3008 3012 3012 3015 3018 3021 3024 3026 3028 3030 3032 3034 3035 3036 3037 3037 3038 3038 3038 3039 3039 3039 3038 3037 3036 3036 3035 3032 3029 3026 3023 3020